Location: Middlebury
(44.0153°N, 73.1678°W)
Time: 18:30:12
(UTC-04:00)

ISS - Visible Passes

Search period start: 23 July 2017 00:00
Search period end: 02 August 2017 00:00
Orbit: 400 x 408 km, 51.6° (Epoch: 24 July)

Date Brightness Start Highest point End Pass type
(mag) Time Alt. Az. Time Alt. Az. Time Alt. Az.
23 Jul -1.4 00:28:04 10° WNW 00:30:46 24° N 00:33:30 10° NE visible
23 Jul -1.3 02:05:18 10° NW 02:07:59 23° N 02:10:41 10° ENE visible
23 Jul -3.5 03:41:39 10° NW 03:44:54 66° NNE 03:48:09 10° ESE visible
23 Jul -3.9 21:58:26 10° SW 22:01:38 62° SE 22:04:52 10° ENE visible
23 Jul -1.8 23:35:24 10° W 23:38:19 29° NNW 23:41:13 10° NE visible
24 Jul -1.2 01:12:55 10° NW 01:15:28 21° N 01:18:03 10° NE visible
24 Jul -2.5 02:49:24 10° NW 02:52:32 41° NNE 02:55:40 10° E visible
24 Jul -3.1 04:26:00 10° WNW 04:28:57 31° SW 04:31:53 10° SSE visible
24 Jul -3.2 21:06:28 10° SSW 21:09:26 33° SE 21:12:24 10° ENE visible
24 Jul -2.4 22:42:46 10° W 22:45:52 40° NNW 22:48:58 10° NE visible
25 Jul -1.2 00:20:23 10° NW 00:22:57 21° N 00:25:31 10° NE visible
25 Jul -1.9 01:57:10 10° NW 02:00:06 30° NNE 02:03:02 10° E visible
25 Jul -3.9 03:33:31 10° WNW 03:36:44 58° SW 03:39:57 10° SE visible
25 Jul -3.3 21:50:15 10° WSW 21:53:28 62° NNW 21:56:43 10° NE visible
25 Jul -1.3 23:27:44 10° WNW 23:30:24 23° N 23:33:04 10° NE visible
26 Jul -1.3 01:04:52 10° NW 01:06:57 23° N 01:06:57 23° N visible
26 Jul -3.9 20:57:54 10° SW 21:01:09 77° SE 21:04:24 10° ENE visible
26 Jul -1.6 22:35:02 10° WNW 22:37:52 27° NNW 22:40:43 10° NE visible
27 Jul -1.3 00:12:28 10° NW 00:15:04 21° N 00:15:43 20° NNE visible
27 Jul -2.1 21:42:20 10° W 21:45:23 35° NNW 21:48:25 10° NE visible
27 Jul -1.2 23:19:57 10° NW 23:22:30 21° N 23:24:47 11° NE visible
28 Jul -0.9 00:56:37 10° NW 00:57:23 15° NW 00:57:23 15° NW visible
28 Jul -2.9 20:49:44 10° WSW 20:52:56 52° NNW 20:56:08 10° NE visible
28 Jul -1.3 22:27:17 10° WNW 22:29:54 22° N 22:32:31 10° NE visible
29 Jul -1.5 00:04:18 10° NW 00:06:32 24° N 00:06:32 24° N visible
29 Jul -1.5 21:34:33 10° WNW 21:37:20 25° NNW 21:40:06 10° NE visible
29 Jul -1.5 23:11:53 10° NW 23:14:32 22° N 23:15:44 18° NE visible
30 Jul -0.6 00:48:15 10° NW 00:48:21 11° NW 00:48:21 11° NW visible
30 Jul -1.3 22:19:22 10° NW 22:21:55 21° N 22:24:29 10° NE visible
30 Jul -1.4 23:55:56 10° NW 23:57:34 24° NNW 23:57:34 24° NNW visible
31 Jul -1.4 21:26:43 10° WNW 21:29:18 21° N 21:31:53 10° NE visible
31 Jul -2.0 23:03:36 10° NW 23:06:29 28° NNE 23:06:49 27° NNE visible
01 Aug -1.6 22:11:12 10° NW 22:13:53 23° N 22:16:05 13° ENE visible
01 Aug -1.3 23:47:31 10° NW 23:48:42 20° NW 23:48:42 20° NW visible
